Regional Weather Roundup
Issued by NWS

Home | Current Version | Previous Version | Text Only | Print | Product List | Glossary Off
Versions: 1 2 3 4 5 6 7 8 9 10 11 12 13 14 15 16 17 18 19 20 21 22 23 24 25 26 27 28 29 30 31 32 33 34 35 36 37 38 39 40 41 42 43 44 45 46 47 48 49 50

000
ASUS43 KMKX 231010
RWRWI

WISCONSIN REGIONAL WEATHER ROUNDUP
NATIONAL WEATHER SERVICE MILWAUKEE/SULLIVAN WI
400 AM CST FRI FEB 23 2018

NOTE: "FAIR" INDICATES FEW OR NO CLOUDS BELOW 12,000 FEET WITH NO
SIGNIFICANT WEATHER AND/OR OBSTRUCTIONS TO VISIBILITY.

WIZ001-002-006>008-014>016-023>028-231100-
NORTHWEST WISCONSIN

CITY           SKY/WX    TMP DP  RH WIND       PRES   REMARKS
SUPERIOR ARPT  LGT SNOW  25  24  96 E8G16     30.10F WCI  17
ASHLAND        LGT SNOW  25  23  92 NE5       30.07F VSB 3/4 WCI  19
HAYWARD        SNOW      25  23  92 CALM      30.05F VSB 1/2
SIREN          LGT SNOW  26  25  96 CALM      30.05F VSB 1
CUMBERLAND     LGT SNOW  25  23  93 CALM      30.03F VSB 1
RICE LAKE      SNOW      26  26  97 E3        30.05F VSB 1/2
CHETEK         SNOW      26  25  96 E3        30.04F VSB 1/2
LADYSMITH      LGT SNOW  27  26  96 E3        30.05F
EAU CLAIRE     SNOW      28  27  96 CALM      30.05F VSB 1/2
MENOMONIE      LGT SNOW  28  27  98 CALM      30.05F VSB 3/4
NEW RICHMOND   LGT SNOW  26  23  91 E5        30.04F WCI  20
OSCEOLA        LGT SNOW  27  27 100 SE5       30.07F WCI  21
$$

WIZ003>005-009-010-017-018-231100-
NORTH CENTRAL WISCONSIN

CITY           SKY/WX    TMP DP  RH WIND       PRES   REMARKS
MANITOWISH WTR LGT SNOW  24  24 100 SE3       30.04F
ARBOR VITAE    LGT SNOW  26  24  93 SE6       30.05F WCI  19
WOODRUFF       LGT SNOW  26  24  93 SE6       30.05F WCI  19
RHINELANDER    LGT SNOW  29  28  96 S5        30.07F FOG     WCI  24
EAGLE RIVER    LGT SNOW  26  26 100 CALM      30.06F
LAND O LAKES   LGT SNOW  26  25  96 SE5       30.07F VSB 3/4 WCI  20
PHILLIPS       LGT SNOW  25  25 100 E3        30.04F
TOMAHAWK       LGT SNOW  28  27  96 CALM      30.06F VSB 3/4
MEDFORD        MIX PCPN  28  27  96 SE5       30.03F VSB 1/2 WCI  23
MERRILL        LGT SNOW  29  29  99 E3        30.06F
$$

WIZ029-030-035-036-043>047-231100-
CENTRAL WISCONSIN

CITY           SKY/WX    TMP DP  RH WIND       PRES   REMARKS
WAUSAU         FRZ RAIN  30  29  96 SE8       30.04F FOG     WCI  22
MOSINEE        LGT SNOW  30  30 100 SE6       30.05F WCI  24
MARSHFIELD     LGT SNOW  31  30  96 S8        30.03F FOG     WCI  23
STEVENS POINT  MIX PCPN  30  30 100 SE5       30.06F WCI  25
WAUPACA        LGT RAIN  34  32  92 SE5       30.08F WCI  30
WAUTOMA        MIX PCPN  32  30  93 SE3       30.08F
WISC RAPIDS    FRZ RAIN  32  29  88 S5        30.08F WCI  27
CAMP DOUGLAS   FRZ RAIN  32  32  99 CALM      30.07S FOG
$$

WIZ011>013-019>022-031-037>040-048>050-231100-
NORTHEAST WISCONSIN

CITY           SKY/WX    TMP DP  RH WIND       PRES   REMARKS
ANTIGO         LGT SNOW  28  28  99 SE8G16    30.06S WCI  20
SHAWANO        RAIN      33  32  94 S3        30.09F
OCONTO         CLOUDY    32  31  97 SE8       30.10F WCI  25
STURGEON BAY   CLOUDY    32  30  92 S13G21    30.12F WCI  22
GREEN BAY      RAIN      33  30  88 SE12      30.09F WCI  24
MANITOWOC      LGT RAIN  33  31  92 S20G25    30.12F WCI  21
APPLETON       LGT RAIN  32  32 100 SE10      30.06F WCI  24
CLINTONVILLE   LGT SNOW  32  31  95 SE7       30.09F WCI  26
OSHKOSH        LGT RAIN  34  33  96 SE13      30.06F WCI  25
$$

WIZ032>034-041-042-053>061-231100-
SOUTHWEST WISCONSIN

CITY           SKY/WX    TMP DP  RH WIND       PRES   REMARKS
LA CROSSE      LGT RAIN  34  33  96 SE5       30.04F FOG     WCI  30
SPARTA         MIX PCPN  31  31 100 CALM      30.07F
VIROQUA        CLOUDY    32  32 100 SE5       30.04F WCI  28
BOSCOBEL       LGT RAIN  34  32  92 E3        30.07F VSB 3/4
PRAIRIE DU CHI MIX PCPN  33  32  96 E3        30.06F
PLATTEVILLE    CLOUDY    34  34 100 SW3       30.07F VSB 1/2
$$

WIZ056-057-062-063-064-067-068-231100-
SOUTH CENTRAL WISCONSIN

CITY           SKY/WX    TMP DP  RH WIND       PRES   REMARKS
REEDSBURG      RAIN      33  33 100 S6        30.08S WCI  27
BARABOO/DELLS  MIX PCPN  33  32  97 SW5       30.07S WCI  29
LONE ROCK      LGT RAIN  33  33 100 CALM      30.08F VSB 1
MINERAL POINT  LGT RAIN  36 N/A N/A S6        30.07S VSB 1/2 WCI  31
MADISON        FOG       35  35 100 S8        30.07F VSB 1   WCI  29
MIDDLETON      CLOUDY    36  36 100 S6        30.07F VSB 1   WCI  32
WATERTOWN      RAIN      35  35 100 SE8       30.07F WCI  28
MONROE         DRZL/FOG  36  36 100 S7        30.05F VSB 1/2 WCI  30
JANESVILLE     RAIN      36  36 100 SE8       30.06F VSB 1/2 WCI  29
$$

WIZ051-052-058>065-066-070>072-231100-
SOUTHEAST WISCONSIN

CITY           SKY/WX    TMP DP  RH WIND       PRES   REMARKS
MILWAUKEE      LGT RAIN  37  36  96 SE10G23   30.10F VSB 3/4 WCI  30
WAUKESHA       FOG       32  32 100 SE8       30.09F VSB 3/4 WCI  25
MILWAUKEE/TIMM DRZL/FOG  34  32  93 SE13G18   30.10F VSB 1   WCI  25
RACINE         FOG       35  35 100 SE12G21   30.12F VSB 3/4 WCI  27
BURLINGTON     LGT SNOW  35  34  96 SE8       30.10F VSB 3/4 WCI  28
KENOSHA        LGT RAIN  36  34  92 SE13G22   30.10F VSB 1/2 WCI  27
FOND DU LAC    CLOUDY    35  32  88 SE14      30.06F FOG     WCI  26
SHEBOYGAN      CLOUDY    34  34 100 S12G22    30.11F FOG     WCI  25
WEST BEND      CLOUDY    34  34 100 S8G17     30.09F FOG     WCI  27
JUNEAU         FOG       34  33  98 SE13      30.07F VSB 3/4 WCI  25
$$

LSZ147-162-231100-
LAKE SUPERIOR

STATION/POSITION TIME  TEMP    WIND        PRES    WAVE
                       AIR SEA DIR/SP/G            HT/PER
                 (UTC) (F)     (DEG/KT/KT) (MB)    (FT/S)
DEVILS ISLAND    1000   27      70/ 15/ 17 1020.3F
SAXON HARBOR     0940   26      CALM  /  2 1018.6F
$$

LMZ867-665-643>646-231100-
LAKE MICHIGAN

STATION/POSITION TIME  TEMP    WIND        PRES    WAVE
                       AIR SEA DIR/SP/G            HT/PER
                 (UTC) (F)     (DEG/KT/KT) (MB)    (FT/S)
NORTHPORT PIER   0930   33                 1021.7F
KEWAUNEE LAKESHO 0942   34     160/ 22/ 25 1019.2F
SHEBOYGAN LAKESH 1000   34     160/ 21/ 23 1020.0F
PORT WASHINGTON  0930   36     160/ 12/ 15 1021.3F
MILWAUKEE LAKESH 0930   34     160/ 12/ 13   N/A
KENOSHA   LAKESH 1000   34     160/ 11/ 13 1020.0
$$

TC  - TEMPERATURE IN CELSIUS
VSB - VISIBILITY IN STATUTE MILES
WCI - WIND CHILL INDEX
HX  - HEAT INDEX





USA.gov is the U.S. government's official web portal to all federal, state and local government web resources and services.